Regional Weather Roundup
Issued by NWS Sioux Falls, SD

Home | Current Version | Previous Version | Graphics & Text | Print | Product List | Glossary Off
Versions: 1 2 3 4 5 6 7 8 9 10 11 12 13 14 15 16 17 18 19 20 21 22 23 24 25 26 27 28 29 30 31 32 33 34 35 36 37 38 39 40 41 42 43 44 45 46 47 48 49 50

000
ASUS43 KFSD 270210
RWRFSD

WEATHER ROUNDUP FOR SE SOUTH DAKOTA/SW MINNESOTA/NW IOWA
NATIONAL WEATHER SERVICE SIOUX FALLS SD
900 PM CDT TUE AUG 26 2014

NOTE: "FAIR" INDICATES FEW OR NO CLOUDS BELOW 12,000 FEET WITH NO
SIGNIFICANT WEATHER AND OR OBSTRUCTIONS TO VISIBILITY.


SDZ038>040-050-052>070-270300-
SOUTHEAST SOUTH DAKOTA

CITY           SKY/WX    TMP DP  RH WIND       PRES   REMARKS
CHAMBERLAIN    CLEAR     64  57  78 E7        30.11R
HURON          CLEAR     62  57  83 N7        30.13R
MADISON        FAIR      59  59 100 SE5       30.15R
MITCHELL       PTCLDY    64  60  87 E5        30.13R
SIOUX FALLS    MOCLDY    67  56  67 SE8       30.14R
WINNER         FAIR      69  58  67 E12       30.09R
YANKTON        CLEAR     64  59  82 E5        30.13R
$$

MNZ071-072-080-081-089-090-097-098-270300-
SOUTHWEST MINNESOTA

CITY           SKY/WX    TMP DP  RH WIND       PRES   REMARKS
FAIRMONT       PTCLDY    59  55  88 MISG      30.16R
JACKSON        PTCLDY    61  55  82 NE5       30.18R
LUVERNE        PTCLDY    64  59  82 E3        30.16R
MARSHALL       PTCLDY    64  55  72 E9        30.14R
MONTEVIDEO     CLOUDY    63  57  82 E5        30.17R
PIPESTONE      PTCLDY    64  57  77 SE5       30.15S
REDWOOD FALLS  PTCLDY    66  57  72 CALM      30.15R
TRACY          MOCLDY    65  58  79 CALM      30.16R
WINDOM         PTCLDY    61  55  82 CALM      30.17R
WORTHINGTON    CLEAR     61  57  88 E5        30.18R
$$

IAZ001>003-012>014-020>022-031-032-NEZ013-014-SDZ071-270300-
NORTHWEST IOWA

CITY           SKY/WX    TMP DP  RH WIND       PRES   REMARKS
CHEROKEE       PTCLDY    63  62  94 CALM      30.16R
DENISON        MOCLDY    68  64  88 NE5       30.12R
ESTHERVILLE    MOCLDY    62  58  86 N3        30.16R
LE MARS        CLEAR     66  61  82 CALM      30.16R
ORANGE CITY    CLEAR     66  59  77 CALM      30.16R
SHELDON        CLOUDY    61  61 100 CALM      30.16R
SIOUX CITY     CLEAR     68  62  81 NE6       30.13R
SPENCER        PTCLDY    63  59  87 E6        30.16R
STORM LAKE     MOCLDY    63  63 100 E3        30.16R
$$

ABBREVIATIONS USED IN REMARKS
   TC - TEMPERATURE IN CELSIUS
  WCI - WIND CHILL INDEX
   HX - HEAT INDEX
  VSB - VISIBILITY




USA.gov is the U.S. government's official web portal to all federal, state and local government web resources and services.